Main page
METAR-TAF:

METAR-TAF

Airports :

Kharg Airport

Kharg Island, Iran

latitude: 29-15-34N, longitude: 50-19-24E, elevation: 5 m

Current weather observation

The report was made 2 hours and 6 minutes ago, at 15:00 UTC
Wind 4 kt from the West
Temperature 31°C
Humidity 66%
Pressure 1010 hPa
Visibility 10 km or more
no clouds below 1500 m and no cumulonimbus

METAR: OIBQ 181500Z 26004KT CAVOK 31/24 Q1010

Time: 20:36 (17:06 UTC)


TAF: missing

Weather observations and forecasts of more than 4000 airports (METAR and TAF reports).

The available stations are represented by yellow and red dots on the map.

Hover mouse over dot to see the name of the station.

Then click to see weather observations and forecasts.

To change the map : click on the green buttons with a black cross to zoom in, on the green button with a dash to zoom out, or on the green arrows for adjacent maps.


METAR-TAF: